sat.trackr.live / text

‹ back to catalog

STARLINK-4014

NORAD 52684 · 2022-053AE

PAYLOAD ACTIVE UNKNOWN

§ Identity

Operator
Country
US
Launch date
2022-05-18
Launch site
AFETR
Launch vehicle
Mass (kg)
RCS (m²)

Purposes: comms

External: N2YO · Heavens-Above · Gunter

§ Orbital elements

Epoch: 2026-09-20T04:00:03.000096Z

Period
94.34 min
Inclination
53.1606°
Eccentricity
0.0000797
Mean motion
15.26361693 rev/d
Perigee alt
486.2 km
Apogee alt
487.2 km
Semi-major
6,864.8 km
B*
3.4169e-3
RAAN
349.0868°
Arg perigee
64.9896°
Mean anomaly
267.8298°
Rev number
584

§ Raw data

STARLINK-40141 52684U 22053AE  26263.16670139  .00090760  00000+0  34169-2 0  99952 52684  53.1606 349.0868 0000797  64.9896 267.8298 15.26361693  5842

JSON: /api/v1/satellites/52684 · /tle

For live sub-satellite position, see the globe view (requires WebGL).

§ Visibility from observer

Set your observer location to see the next 7 days of passes ≥ 10°. The values pass through the URL so the page stays shareable.

No JS? Fill the form by hand. The geolocation button needs JavaScript.